DW2893 Weather Reports


Display with metric or nautical units.
time (UTC)temp
F
wind
direction
speed
MPH
gust
MPH
rain 1hr
in
rain 24hr
in
rain mn
in
humidity
%
barometer
mb
20260905001810 94 122 6.0 14.0 0.00 0.00 0.00 49 1009.7
20260905001308 94 122 6.0 13.0 0.00 0.00 0.00 49 1009.7
20260905000809 94 119 4.0 13.0 0.00 0.00 0.00 49 1009.7
20260904235810 95 101 6.0 13.0 0.00 0.00 0.00 49 1009.6
20260904235312 95 99 8.0 15.0 0.00 0.00 0.00 48 1009.6
20260904234310 95 106 7.0 12.0 0.00 0.00 0.00 49 1009.6
20260904233811 95 120 7.0 12.0 0.00 0.00 0.00 49 1009.5
20260904232809 95 146 7.0 12.0 0.00 0.00 0.00 49 1009.5
20260904232309 95 100 6.0 12.0 0.00 0.00 0.00 49 1009.5
20260904230808 97 118 7.0 14.0 0.00 0.00 0.00 47 1009.5
20260904225311 97 129 8.0 14.0 0.00 0.00 0.00 47 1009.7
20260904224810 97 158 9.0 14.0 0.00 0.00 0.00 47 1009.7
20260904224309 97 65 6.0 13.0 0.00 0.00 0.00 48 1009.7
20260904223309 97 88 7.0 14.0 0.00 0.00 0.00 46 1009.7
20260904222809 97 116 6.0 14.0 0.00 0.00 0.00 46 1009.6
20260904222309 98 117 9.0 14.0 0.00 0.00 0.00 46 1009.6
20260904221308 98 103 6.0 12.0 0.00 0.00 0.00 46 1009.6
20260904220308 98 117 9.0 18.0 0.00 0.00 0.00 45 1009.6
20260904215810 98 119 7.0 17.0 0.00 0.00 0.00 46 1009.6
20260904215308 97 130 5.0 13.0 0.00 0.00 0.00 46 1009.8
20260904214810 97 91 7.0 13.0 0.00 0.00 0.00 45 1009.8
20260904214311 98 82 9.0 15.0 0.00 0.00 0.00 45 1009.8
20260904213809 97 19 9.0 15.0 0.00 0.00 0.00 46 1009.9
20260904213310 97 135 5.0 12.0 0.00 0.00 0.00 46 1009.9
20260904212809 97 127 6.0 12.0 0.00 0.00 0.00 46 1010.0
20260904212310 97 122 7.0 10.0 0.00 0.00 0.00 47 1010.2
20260904211308 97 150 6.0 12.0 0.00 0.00 0.00 47 1010.2
20260904210808 97 139 5.0 9.0 0.00 0.00 0.00 46 1010.4
20260904205807 96 246 5.0 10.0 0.00 0.00 0.00 48 1010.5
20260904205307 96 186 6.0 12.0 0.00 0.00 0.00 48 1010.5
20260904204308 96 327 8.0 14.0 0.00 0.00 0.00 47 1010.5
20260904203807 96 147 9.0 17.0 0.00 0.00 0.00 47 1010.7
20260904201308 98 149 5.0 14.0 0.00 0.00 0.00 46 1011.0
20260904195808 98 80 8.0 16.0 0.00 0.00 0.00 47 1011.2
20260904195308 97 203 4.0 13.0 0.00 0.00 0.00 46 1011.2
20260904194807 97 91 4.0 12.0 0.00 0.00 0.00 47 1011.2
20260904190807 96 131 8.0 15.0 0.00 0.00 0.00 49 1011.6
20260904190307 96 182 6.0 14.0 0.00 0.00 0.00 48 1011.6
20260904185307 95 140 9.0 17.0 0.00 0.00 0.00 49 1011.8
20260904184807 95 185 6.0 14.0 0.00 0.00 0.00 49 1012.1
20260904183808 95 6 8.0 16.0 0.00 0.00 0.00 49 1012.1
20260904183308 95 13 7.0 14.0 0.00 0.00 0.00 51 1012.1
20260904181807 93 211 6.0 14.0 0.00 0.00 0.00 54 1012.3
20260904180807 93 148 5.0 13.0 0.00 0.00 0.00 54 1012.6
20260904180308 93 24 6.0 12.0 0.00 0.00 0.00 54 1012.6
20260904175307 94 182 6.0 18.0 0.00 0.00 0.00 55 1012.8
20260904173807 93 171 4.0 9.0 0.00 0.00 0.00 56 1012.8
20260904171807 93 154 5.0 10.0 0.00 0.00 0.00 56 1013.0
20260904171307 93 223 3.0 10.0 0.00 0.00 0.00 57 1013.2
20260904170307 92 320 5.0 12.0 0.00 0.00 0.00 57 1013.2
20260904164807 91 152 7.0 12.0 0.00 0.00 0.00 60 1013.5
20260904163807 91 190 5.0 12.0 0.00 0.00 0.00 61 1013.3
20260904162807 90 175 6.0 10.0 0.00 0.00 0.00 63 1013.3
20260904162307 90 323 7.0 10.0 0.00 0.00 0.00 64 1013.3
20260904160307 89 220 5.0 12.0 0.00 0.00 0.00 65 1013.3
20260904155807 89 2 7.0 12.0 0.00 0.00 0.00 67 1013.3
20260904155307 88 201 6.0 12.0 0.00 0.00 0.00 66 1013.2
20260904154807 88 217 6.0 10.0 0.00 0.00 0.00 68 1013.2
20260904153806 88 166 8.0 13.0 0.00 0.00 0.00 69 1013.3
20260904153307 87 183 6.0 12.0 0.00 0.00 0.00 71 1013.3
20260904152807 87 216 6.0 12.0 0.00 0.00 0.00 72 1013.3
20260904152307 86 212 3.0 10.0 0.00 0.00 0.00 73 1013.3
20260904141306 81 146 5.0 12.0 0.00 0.00 0.00 87 1013.1
20260904140806 80 159 4.0 12.0 0.00 0.00 0.00 88 1013.1
20260904140306 80 144 5.0 12.0 0.00 0.00 0.00 88 1013.1
20260904134807 79 222 5.0 9.0 0.00 0.00 0.00 89 1012.9
20260904134307 79 170 5.0 9.0 0.00 0.00 0.00 90 1012.9
20260904131807 78 153 8.0 12.0 0.00 0.00 0.00 91 1012.6
20260904130307 77 139 7.0 12.0 0.00 0.00 0.00 92 1012.5
20260904125806 77 142 6.0 12.0 0.00 0.00 0.00 92 1012.5
20260904122307 76 126 7.0 12.0 0.00 0.00 0.00 91 1012.1
20260904121806 76 137 4.0 7.0 0.00 0.00 0.00 90 1012.1
20260904120807 76 142 6.0 10.0 0.00 0.00 0.00 90 1012.1
20260904115307 76 142 3.0 8.0 0.00 0.00 0.00 89 1012.0
20260904114806 76 93 5.0 8.0 0.00 0.00 0.00 89 1012.0
20260904114306 76 143 4.0 8.0 0.00 0.00 0.00 89 1012.1
20260904113806 76 148 4.0 7.0 0.00 0.00 0.00 88 1012.1
20260904112306 76 159 4.0 7.0 0.00 0.00 0.00 88 1011.9
20260904104806 77 141 1.0 5.0 0.00 0.00 0.00 87 1011.8
20260904104306 77 141 1.0 6.0 0.00 0.00 0.00 87 1011.8
20260904103306 77 144 3.0 6.0 0.00 0.00 0.00 87 1011.7
20260904102806 78 147 2.0 7.0 0.00 0.00 0.00 86 1011.7
20260904102307 78 151 3.0 8.0 0.00 0.00 0.00 86 1011.7
20260904100806 78 140 5.0 8.0 0.00 0.00 0.00 86 1011.6
20260904100306 78 144 4.0 9.0 0.00 0.00 0.00 86 1011.6
20260904095806 78 157 3.0 6.0 0.00 0.00 0.00 86 1011.6
20260904095306 78 156 4.0 7.0 0.00 0.00 0.00 86 1011.6
20260904093806 78 152 2.0 9.0 0.00 0.00 0.00 85 1011.6
20260904093306 78 155 5.0 9.0 0.00 0.00 0.00 85 1011.6
20260904092306 78 146 5.0 8.0 0.00 0.00 0.00 85 1011.6
20260904090305 78 157 6.0 10.0 0.00 0.00 0.00 84 1011.7
20260904085306 78 173 5.0 10.0 0.00 0.00 0.00 84 1011.4
20260904084305 79 93 6.0 10.0 0.00 0.00 0.00 84 1011.4
20260904082805 79 168 5.0 8.0 0.00 0.00 0.00 83 1011.4
20260904080305 79 182 6.0 14.0 0.00 0.00 0.00 82 1011.3
20260904075307 79 165 5.0 9.0 0.00 0.00 0.00 82 1011.4
20260904074305 79 176 7.0 12.0 0.00 0.00 0.00 81 1011.4
20260904073806 79 160 5.0 9.0 0.00 0.00 0.00 81 1011.4
20260904070806 80 165 6.0 14.0 0.00 0.00 0.00 79 1011.5
20260904065805 80 168 7.0 12.0 0.00 0.00 0.00 79 1011.6
20260904064306 80 182 7.0 15.0 0.00 0.00 0.00 78 1011.7
20260904063305 80 145 7.0 12.0 0.00 0.00 0.00 77 1011.6
20260904061805 80 167 6.0 14.0 0.00 0.00 0.00 76 1011.7
20260904061305 80 153 9.0 13.0 0.00 0.00 0.00 76 1011.6
20260904055306 80 175 7.0 13.0 0.00 0.00 0.00 75 1011.7
20260904054305 80 152 7.0 13.0 0.00 0.00 0.00 75 1011.7
20260904053305 80 147 5.0 12.0 0.00 0.00 0.00 75 1011.7
20260904051805 81 77 7.0 12.0 0.00 0.00 0.00 74 1011.7
20260904050925 81 155 7.0 12.0 0.00 0.00 0.00 73 1011.6
20260904050307 81 155 7.0 12.0 0.00 0.00 0.00 73 1011.6
20260904044805 81 149 8.0 12.0 0.00 0.00 0.00 72 1011.6
20260904044306 81 174 6.0 10.0 0.00 0.00 0.00 72 1011.6
20260904043305 81 83 7.0 15.0 0.00 0.00 0.00 72 1011.5
20260904042805 82 33 7.0 12.0 0.00 0.00 0.00 71 1011.5
20260904041805 82 79 9.0 15.0 0.00 0.00 0.00 70 1011.5
20260904040305 82 159 5.0 9.0 0.00 0.00 0.00 69 1011.7
20260904035306 82 163 5.0 12.0 0.00 0.00 0.00 69 1011.7
20260904034805 82 351 5.0 12.0 0.00 0.00 0.00 69 1011.7
20260904034304 82 167 7.0 12.0 0.00 0.00 0.00 68 1011.7
20260904033805 82 76 10.0 15.0 0.00 0.00 0.00 68 1011.7
20260904033305 82 159 8.0 15.0 0.00 0.00 0.00 67 1011.7
20260904032804 83 53 9.0 15.0 0.00 0.00 0.00 67 1011.7
20260904030805 83 133 8.0 15.0 0.00 0.00 0.00 68 1011.4
20260904030305 83 120 10.0 17.0 0.00 0.00 0.00 68 1011.4
20260904024804 83 155 6.0 12.0 0.00 0.00 0.00 71 1011.3
20260904024305 83 135 7.0 13.0 0.00 0.00 0.00 72 1011.3
20260904023805 83 102 7.0 13.0 0.00 0.00 0.00 71 1010.6
20260904023304 83 136 6.0 14.0 0.00 0.00 0.00 71 1010.6
20260904022805 83 128 9.0 15.0 0.00 0.00 0.00 70 1010.6
20260904022306 84 61 10.0 16.0 0.00 0.00 0.00 71 1010.6
20260904020805 84 104 8.0 18.0 0.00 0.00 0.00 71 1010.6
20260904015306 84 136 6.0 17.0 0.00 0.00 0.00 70 1010.4
20260904014804 85 182 10.0 18.0 0.00 0.00 0.00 70 1010.4
20260904013804 85 153 4.0 9.0 0.00 0.00 0.00 69 1010.2
20260904013304 85 145 3.0 12.0 0.00 0.00 0.00 68 1010.2
20260904012804 85 145 7.0 13.0 0.00 0.00 0.00 68 1010.2
20260904011804 85 153 6.0 12.0 0.00 0.00 0.00 67 1010.0
20260904011304 85 146 6.0 12.0 0.00 0.00 0.00 67 1010.0
20260904010804 85 17 7.0 12.0 0.00 0.00 0.00 66 1010.0
20260904005804 86 127 8.0 17.0 0.00 0.00 0.00 65 1010.0
20260904005306 86 130 9.0 15.0 0.00 0.00 0.00 65 1010.0
20260904004804 86 131 9.0 14.0 0.00 0.00 0.00 65 1010.0
20260904003804 86 130 8.0 18.0 0.00 0.00 0.00 66 1009.8